FW0267 Weather Reports


time (UTC)temp
C
wind
direction
speed
KPH
gust
KPH
rain 1hr
cm
rain 24hr
cm
rain mn
cm
humidity
%
barometer
mb
20260502204034 15 82 0.0 0.0 0.00 0.00 0.00 43 1011.6
20260502203532 15 82 0.0 0.0 0.00 0.00 0.00 43 1011.6
20260502203031 16 82 0.0 3.2 0.00 0.00 0.00 43 1011.8
20260502202528 16 82 0.0 3.2 0.00 0.00 0.00 43 1011.8
20260502202027 16 82 0.0 4.8 0.00 0.00 0.00 42 1011.8
20260502201531 16 82 0.0 4.8 0.00 0.00 0.00 42 1011.8
20260502201029 16 49 0.0 0.0 0.00 0.00 0.00 44 1012.0
20260502200523 16 49 0.0 0.0 0.00 0.00 0.00 41 1012.1
20260502200022 16 49 0.0 0.0 0.00 0.00 0.00 46 1012.1
20260502195521 16 49 0.0 1.6 0.00 0.00 0.00 46 1012.0
20260502195019 16 49 0.0 3.2 0.00 0.00 0.00 44 1012.1
20260502194517 16 49 0.0 3.2 0.00 0.00 0.00 41 1012.1
20260502194017 16 146 0.0 4.8 0.00 0.00 0.00 44 1012.2
20260502193514 16 146 0.0 4.8 0.00 0.00 0.00 41 1012.3
20260502193013 16 328 0.0 3.2 0.00 0.00 0.00 44 1012.3
20260502192512 16 326 1.6 8.0 0.00 0.00 0.00 42 1012.4
20260502192009 16 28 1.6 8.0 0.00 0.00 0.00 43 1012.5
20260502191509 16 206 0.0 4.8 0.00 0.00 0.00 44 1012.6
20260502191009 15 60 0.0 1.6 0.00 0.00 0.00 46 1012.6
20260502190505 15 60 0.0 6.4 0.00 0.00 0.00 44 1012.6
20260502190007 15 61 1.6 6.4 0.00 0.00 0.00 44 1012.7
20260502185502 15 211 1.6 4.8 0.00 0.00 0.00 46 1012.7
20260502185001 15 87 0.0 4.8 0.00 0.00 0.00 46 1012.9
20260502184604 15 87 0.0 4.8 0.00 0.00 0.00 43 1012.9
20260502184101 15 240 1.6 6.4 0.00 0.00 0.00 44 1013.0
20260502183557 15 206 1.6 6.4 0.00 0.00 0.00 44 1012.8
20260502183056 15 333 1.6 6.4 0.00 0.00 0.00 45 1012.9
20260502182553 15 165 0.0 4.8 0.00 0.00 0.00 46 1012.9
20260502182052 15 303 0.0 4.8 0.00 0.00 0.00 45 1013.3
20260502181607 15 105 1.6 4.8 0.00 0.00 0.00 45 1013.3
20260502181049 15 103 1.6 4.8 0.00 0.00 0.00 46 1013.4
20260502180547 15 342 0.0 4.8 0.00 0.00 0.00 45 1013.4
20260502164023 12 325 0.0 4.8 0.00 0.00 0.00 53 1014.6
20260502163521 12 325 1.6 4.8 0.00 0.00 0.00 53 1014.5
20260502163020 12 57 0.0 0.0 0.00 0.00 0.00 54 1014.6
20260502162520 12 57 0.0 1.6 0.00 0.00 0.00 54 1014.6
20260502162017 11 101 0.0 3.2 0.00 0.00 0.00 53 1014.7
20260502161515 11 101 0.0 3.2 0.00 0.00 0.00 52 1014.7
20260502161015 11 101 0.0 8.0 0.00 0.00 0.00 52 1014.7
20260502160514 11 111 0.0 8.0 0.00 0.00 0.00 51 1014.7
20260502152059 12 239 1.6 8.0 0.00 0.00 0.00 50 1015.1
20260502151606 12 311 1.6 8.0 0.00 0.00 0.00 51 1014.7
20260502151100 12 330 0.0 4.8 0.00 0.00 0.00 52 1014.7
20260502150555 12 360 1.6 4.8 0.00 0.00 0.00 53 1014.7
20260502130522 11 79 0.0 4.8 0.00 0.00 0.00 35 1014.3
20260502123510 11 329 0.0 4.8 0.00 0.00 0.00 16 1014.0
20260502123010 10 317 0.0 4.8 0.00 0.00 0.00 11 1013.9
20260502122508 10 327 0.0 4.8 0.00 0.00 0.00 8 1014.1
20260502122010 10 327 1.6 6.4 0.00 0.00 0.00 5 1013.9
20260502121509 10 12 1.6 6.4 0.00 0.00 0.00 3 1013.9
20260502121006 10 327 1.6 9.7 0.00 0.00 0.00 1 1013.7
20260502120504 10 130 1.6 9.7 0.00 0.00 0.00 1 1013.7
20260502120107 10 57 1.6 6.4 0.00 0.00 0.00 1 1013.7
20260502115600 10 92 1.6 6.4 0.00 0.00 0.00 1 1013.7
20260502115058 10 348 1.6 8.0 0.00 0.00 0.00 1 1013.8
20260502114600 10 317 0.0 8.0 0.00 0.00 0.00 1 1013.9
20260502114056 10 306 0.0 8.0 0.00 0.00 0.00 1 1013.8
20260502113554 10 32 1.6 8.0 0.00 0.00 0.00 1 1013.9
20260502113053 10 120 1.6 4.8 0.00 0.00 0.00 1 1013.9
20260502112551 10 56 0.0 4.8 0.00 0.00 0.00 1 1013.8
20260502112049 10 296 0.0 4.8 0.00 0.00 0.00 1 1013.8
20260502111549 10 146 0.0 4.8 0.00 0.00 0.00 1 1013.7
20260502111046 10 139 0.0 0.0 0.00 0.00 0.00 1 1013.8
20260502110546 10 135 0.0 1.6 0.00 0.00 0.00 1 1013.9
20260502110045 10 135 0.0 1.6 0.00 0.00 0.00 1 1014.0
20260502105543 10 135 0.0 1.6 0.00 0.00 0.00 1 1013.9
20260502105042 10 121 0.0 4.8 0.00 0.00 0.00 1 1013.9
20260502104541 10 76 1.6 4.8 0.00 0.00 0.00 1 1013.8
20260502104039 10 109 0.0 3.2 0.00 0.00 0.00 1 1013.7
20260502103540 10 100 0.0 1.6 0.00 0.00 0.00 1 1013.6
20260502103036 10 86 0.0 1.6 0.00 0.00 0.00 1 1013.7
20260502102534 10 92 0.0 1.6 0.00 0.00 0.00 1 1013.5
20260502102033 10 98 0.0 1.6 0.00 0.00 0.00 1 1013.5
20260502101537 9 101 0.0 0.0 0.00 0.00 0.00 1 1013.5
20260502101029 9 101 0.0 0.0 0.00 0.00 0.00 1 1013.5
20260502100528 9 101 0.0 0.0 0.00 0.00 0.00 1 1013.4
20260502091514 10 174 0.0 0.0 0.00 0.00 0.00 1 1013.0
20260502091012 10 174 0.0 0.0 0.00 0.00 0.00 1 1013.0
20260502090510 10 174 0.0 0.0 0.00 0.00 0.00 1 1013.1
20260502080104 10 174 0.0 0.0 0.00 0.00 0.00 1 1012.6
20260502071037 11 174 0.0 0.0 0.00 0.00 0.00 1 1012.5
20260502070537 11 174 0.0 0.0 0.00 0.00 0.00 1 1012.4
20260502070037 11 174 0.0 0.0 0.00 0.00 0.00 1 1012.5
20260502065533 11 174 0.0 0.0 0.00 0.00 0.00 1 1012.4
20260502065034 11 174 0.0 0.0 0.00 0.00 0.00 1 1012.6
20260502064546 11 174 0.0 0.0 0.00 0.00 0.00 1 1012.5
20260502064030 11 174 0.0 0.0 0.00 0.00 0.00 1 1012.4
20260502063529 11 174 0.0 0.0 0.00 0.00 0.00 1 1012.5
20260502063033 11 174 0.0 0.0 0.00 0.00 0.00 1 1012.5
20260502062527 11 174 0.0 0.0 0.00 0.00 0.00 1 1012.4
20260502062023 11 174 0.0 0.0 0.00 0.00 0.00 1 1012.6
20260502061520 11 174 0.0 0.0 0.00 0.00 0.00 1 1012.7
20260502061019 11 174 0.0 0.0 0.00 0.00 0.00 1 1012.8
20260502060518 11 174 0.0 1.6 0.00 0.00 0.00 1 1012.8
20260502060016 12 174 0.0 3.2 0.00 0.00 0.00 1 1012.7
20260502055515 12 174 0.0 3.2 0.00 0.00 0.00 1 1012.9
20260502055014 12 174 0.0 1.6 0.00 0.00 0.00 1 1012.9
20260502054513 12 174 0.0 1.6 0.00 0.00 0.00 1 1012.8
20260502054011 12 174 0.0 0.0 0.00 0.00 0.00 1 1012.8
20260502053509 12 174 0.0 0.0 0.00 0.00 0.00 1 1012.8
20260502053008 12 174 0.0 1.6 0.00 0.00 0.00 1 1012.8
20260502052508 12 174 0.0 3.2 0.00 0.00 0.00 2 1012.8
20260502052005 12 174 0.0 3.2 0.00 0.00 0.00 3 1012.7
20260502051504 12 160 0.0 3.2 0.00 0.00 0.00 4 1012.7
20260502051002 12 160 1.6 3.2 0.00 0.00 0.00 5 1012.9
20260502050501 12 161 0.0 3.2 0.00 0.00 0.00 6 1012.8
20260502050100 12 161 0.0 3.2 0.00 0.00 0.00 7 1012.9
20260502045558 12 159 0.0 3.2 0.00 0.00 0.00 8 1012.9
20260502045057 12 159 0.0 4.8 0.00 0.00 0.00 9 1012.9
20260502044556 12 159 1.6 4.8 0.00 0.00 0.00 10 1013.0
20260502044056 12 163 0.0 8.0 0.00 0.00 0.00 11 1013.0
20260502043555 12 165 0.0 8.0 0.00 0.00 0.00 12 1013.1
20260502043054 12 167 0.0 8.0 0.00 0.00 0.00 13 1013.2
20260502042551 13 154 1.6 3.2 0.00 0.00 0.00 14 1013.2
20260502042050 13 194 0.0 6.4 0.00 0.00 0.00 15 1013.2
20260502041550 13 194 1.6 6.4 0.00 0.00 0.00 17 1013.2
20260502041049 13 151 1.6 8.0 0.00 0.00 0.00 19 1013.1
20260502040548 13 155 0.0 6.4 0.00 0.00 0.00 20 1013.1
20260502040057 13 150 0.0 8.0 0.00 0.00 0.00 22 1013.2
20260502035546 13 142 0.0 0.0 0.00 0.00 0.00 23 1013.1
20260502035044 13 142 0.0 8.0 0.00 0.00 0.00 24 1013.0
20260502034543 13 142 0.0 8.0 0.00 0.00 0.00 26 1013.0
20260502034044 13 139 0.0 4.8 0.00 0.00 0.00 27 1013.0
20260502033540 13 139 1.6 4.8 0.00 0.00 0.00 28 1012.9
20260502033038 13 146 0.0 4.8 0.00 0.00 0.00 30 1012.9
20260502032537 13 141 0.0 11.3 0.00 0.00 0.00 31 1012.8
20260502032035 13 141 1.6 11.3 0.00 0.00 0.00 32 1012.8
20260502031541 13 161 0.0 4.8 0.00 0.00 0.00 34 1012.6
20260502031033 13 161 0.0 4.8 0.00 0.00 0.00 35 1012.6
20260502030532 14 134 0.0 3.2 0.00 0.00 0.00 37 1012.6
20260502030030 14 134 1.6 3.2 0.00 0.00 0.00 38 1012.5
20260502025528 14 177 0.0 3.2 0.00 0.00 0.00 39 1012.3
20260502025026 14 177 0.0 3.2 0.00 0.00 0.00 40 1012.3
20260502024526 14 176 0.0 3.2 0.00 0.00 0.00 40 1012.4
20260502024024 14 176 0.0 3.2 0.00 0.00 0.00 41 1012.4
20260502023523 14 177 0.0 3.2 0.00 0.00 0.00 42 1012.5
20260502023020 14 177 0.0 12.9 0.00 0.00 0.00 43 1012.5
20260502022520 14 141 0.0 9.7 0.00 0.00 0.00 43 1012.6
20260502022021 14 143 1.6 4.8 0.00 0.00 0.00 44 1012.6
20260502021516 14 151 0.0 8.0 0.00 0.00 0.00 45 1012.6
20260502021014 14 158 1.6 8.0 0.00 0.00 0.00 46 1012.6
20260502020513 14 165 1.6 9.7 0.00 0.00 0.00 47 1012.6
20260502020012 14 161 0.0 9.7 0.00 0.00 0.00 49 1012.6
20260502015511 14 138 1.6 4.8 0.00 0.00 0.00 50 1012.6
20260502015010 14 173 1.6 9.7 0.00 0.00 0.00 51 1012.5
20260502014522 14 170 0.0 9.7 0.00 0.00 0.00 51 1012.7
20260502014005 15 163 1.6 6.4 0.00 0.00 0.00 52 1012.5
20260502013504 15 156 1.6 4.8 0.00 0.00 0.00 52 1012.4
20260502013002 15 156 0.0 4.8 0.00 0.00 0.00 52 1012.4
20260502012502 15 146 0.0 0.0 0.00 0.00 0.00 52 1012.4
20260502012059 15 146 0.0 0.0 0.00 0.00 0.00 52 1012.4
20260502011606 15 146 0.0 0.0 0.00 0.00 0.00 52 1012.2
20260502011058 15 146 0.0 0.0 0.00 0.00 0.00 52 1012.2
20260502010556 15 146 0.0 0.0 0.00 0.00 0.00 51 1012.0
20260502010054 15 146 0.0 0.0 0.00 0.00 0.00 51 1012.0
20260502005552 16 146 0.0 3.2 0.00 0.00 0.00 51 1011.9
20260502005051 16 146 0.0 3.2 0.00 0.00 0.00 50 1012.1
20260502004556 16 146 0.0 3.2 0.00 0.00 0.00 50 1011.9
20260502004049 16 146 0.0 6.4 0.00 0.00 0.00 49 1011.7
20260502003546 16 146 0.0 6.4 0.00 0.00 0.00 49 1011.5
20260502003046 16 144 0.0 1.6 0.00 0.00 0.00 48 1011.5
20260502002543 16 144 0.0 0.0 0.00 0.00 0.00 48 1011.5
20260502002043 16 144 0.0 1.6 0.00 0.00 0.00 47 1011.5
20260502001617 17 144 0.0 3.2 0.00 0.00 0.00 46 1011.5
20260502001038 17 144 0.0 3.2 0.00 0.00 0.00 45 1011.5
20260502000537 17 143 0.0 4.8 0.00 0.00 0.00 45 1011.6
20260502000036 17 143 0.0 4.8 0.00 0.00 0.00 45 1011.6
20260501235535 17 142 0.0 4.8 0.00 0.00 0.00 45 1011.5
20260501235032 17 142 1.6 6.4 0.00 0.00 0.00 44 1011.4
20260501234532 17 46 1.6 6.4 0.00 0.00 0.00 44 1011.5
20260501234030 17 152 0.0 4.8 0.00 0.00 0.00 44 1011.4
20260501233531 17 152 1.6 12.9 0.00 0.00 0.00 44 1011.4
20260501233027 17 163 1.6 12.9 0.00 0.00 0.00 44 1011.3
20260501232528 17 184 1.6 4.8 0.00 0.00 0.00 45 1011.3
20260501232024 18 185 0.0 6.4 0.00 0.00 0.00 44 1011.3
20260501231524 18 98 1.6 8.0 0.00 0.00 0.00 44 1011.3
20260501231021 18 169 3.2 8.0 0.00 0.00 0.00 43 1011.2
20260501230522 18 173 1.6 4.8 0.00 0.00 0.00 43 1011.3
20260501230022 18 135 1.6 8.0 0.00 0.00 0.00 43 1011.3
20260501225515 18 154 1.6 8.0 0.00 0.00 0.00 41 1011.4
20260501225014 18 194 0.0 8.0 0.00 0.00 0.00 41 1011.4
20260501224515 18 200 0.0 6.4 0.00 0.00 0.00 41 1011.3
20260501224011 18 200 0.0 6.4 0.00 0.00 0.00 39 1011.4
20260501223510 18 160 1.6 8.0 0.00 0.00 0.00 39 1011.5
20260501223014 18 140 0.0 6.4 0.00 0.00 0.00 39 1011.5
20260501222509 18 181 1.6 6.4 0.00 0.00 0.00 38 1011.6
20260501222006 18 190 3.2 9.7 0.00 0.00 0.00 38 1011.5
20260501221504 18 163 1.6 9.7 0.00 0.00 0.00 38 1011.6
20260501221002 18 157 3.2 6.4 0.00 0.00 0.00 39 1011.6
20260501220502 18 194 0.0 9.7 0.00 0.00 0.00 40 1011.6
20260501220059 18 161 3.2 9.7 0.00 0.00 0.00 38 1011.6
20260501215559 18 176 3.2 6.4 0.00 0.00 0.00 38 1011.7
20260501215057 18 134 0.0 11.3 0.00 0.00 0.00 40 1011.5
20260501214555 18 130 1.6 11.3 0.00 0.00 0.00 38 1011.6
20260501214055 19 217 1.6 11.3 0.00 0.00 0.00 39 1011.5
20260501213552 19 209 1.6 11.3 0.00 0.00 0.00 38 1011.5
20260501213053 19 180 0.0 6.4 0.00 0.00 0.00 39 1011.5
20260501212549 19 180 1.6 12.9 0.00 0.00 0.00 37 1011.5
20260501212048 19 158 1.6 12.9 0.00 0.00 0.00 37 1011.5
20260501211550 19 130 3.2 8.0 0.00 0.00 0.00 37 1011.6
20260501211047 19 144 1.6 11.3 0.00 0.00 0.00 36 1011.5
20260501210543 19 165 1.6 11.3 0.00 0.00 0.00 37 1011.6
20260501210053 19 171 3.2 14.5 0.00 0.00 0.00 36 1011.7
20260501205543 20 183 3.2 11.3 0.00 0.00 0.00 35 1011.6
20260501205039 20 177 3.2 11.3 0.00 0.00 0.00 35 1011.7
20260501204538 20 165 1.6 9.7 0.00 0.00 0.00 35 1011.8